FW6583 Weather Reports


time (UTC)temp
C
wind
direction
speed
KPH
gust
KPH
rain 1hr
cm
rain 24hr
cm
rain mn
cm
humidity
%
barometer
mb
20260510022526 14 0 0.0 0.0 0.00 0.38 0.38 78 1013.2
20260510022024 15 0 0.0 0.0 0.00 0.38 0.38 77 1013.1
20260510021547 15 0 0.0 0.0 0.00 0.38 0.38 77 1013.2
20260510021023 15 0 0.0 0.0 0.00 0.38 0.38 77 1013.1
20260510020524 15 0 0.0 0.0 0.00 0.38 0.38 76 1013.0
20260510020045 15 0 0.0 0.0 0.00 0.38 0.38 76 1013.0
20260510015523 15 0 0.0 0.0 0.00 0.38 0.38 76 1012.9
20260510015029 15 0 0.0 0.0 0.00 0.38 0.38 75 1012.9
20260510014543 15 0 0.0 0.0 0.00 0.38 0.38 75 1012.6
20260510014025 15 0 0.0 0.0 0.00 0.38 0.38 75 1012.7
20260510013524 15 0 0.0 0.0 0.00 0.38 0.38 75 1012.6
20260510013044 15 0 0.0 0.0 0.00 0.38 0.38 75 1012.4
20260510012525 15 0 0.0 0.0 0.00 0.38 0.38 75 1012.5
20260510012023 15 0 0.0 0.0 0.00 0.38 0.38 74 1012.3
20260510011541 15 0 0.0 0.0 0.00 0.38 0.38 75 1012.4
20260510011025 15 0 0.0 0.0 0.00 0.38 0.38 74 1012.2
20260510010525 15 0 0.0 0.0 0.00 0.38 0.38 74 1012.3
20260510010049 15 0 0.0 0.0 0.00 0.38 0.38 73 1012.2
20260510005524 15 0 0.0 0.0 0.00 0.38 0.38 73 1012.2
20260510005025 16 0 0.0 0.0 0.00 0.38 0.38 73 1012.1
20260510004539 16 0 0.0 0.0 0.00 0.38 0.38 72 1012.1
20260510004024 16 0 0.0 0.0 0.00 0.38 0.38 72 1012.1
20260510003525 16 0 0.0 0.0 0.00 0.38 0.38 71 1011.9
20260510003057 16 0 0.0 0.0 0.00 0.38 0.38 70 1011.9
20260510002525 16 0 0.0 0.0 0.00 0.38 0.38 70 1011.8
20260510002023 16 0 0.0 0.0 0.00 0.38 0.38 69 1011.7
20260510001547 17 0 0.0 0.0 0.00 0.38 0.38 68 1011.8
20260510001025 17 0 0.0 0.0 0.00 0.38 0.38 68 1011.7
20260510000525 17 0 0.0 0.0 0.00 0.38 0.38 67 1011.5
20260510000052 17 0 0.0 0.0 0.00 0.38 0.38 67 1011.5
20260509235523 17 0 0.0 0.0 0.00 0.38 0.38 68 1011.5
20260509235032 17 0 0.0 0.0 0.00 0.38 0.38 69 1011.4
20260509234553 17 0 0.0 3.2 0.00 0.38 0.38 66 1011.3
20260509234027 17 0 0.0 3.2 0.00 0.38 0.38 66 1011.3
20260509233523 17 215 0.0 1.6 0.00 0.38 0.38 67 1011.4
20260509233039 17 345 0.0 3.2 0.00 0.38 0.38 68 1011.3
20260509232524 18 24 1.6 4.8 0.00 0.38 0.38 65 1011.3
20260509232025 18 0 0.0 8.0 0.00 0.38 0.38 68 1011.2
20260509231539 18 285 1.6 8.0 0.00 0.38 0.38 65 1011.3
20260509231024 18 0 1.6 8.0 0.00 0.38 0.38 65 1011.4
20260509230524 18 239 0.0 8.0 0.00 0.38 0.38 66 1011.4
20260509230039 18 28 1.6 8.0 0.00 0.38 0.38 65 1011.4
20260509225523 18 53 3.2 6.4 0.00 0.38 0.38 66 1011.5
20260509225025 18 360 1.6 4.8 0.00 0.38 0.38 68 1011.5
20260509224537 18 230 3.2 8.0 0.00 0.38 0.38 63 1011.5
20260509224025 18 293 1.6 8.0 0.00 0.38 0.38 67 1011.5
20260509223525 18 249 1.6 6.4 0.00 0.38 0.38 63 1011.7
20260509223049 18 276 3.2 9.7 0.00 0.38 0.38 62 1011.7
20260509222536 18 15 1.6 9.7 0.00 0.38 0.38 62 1011.7
20260509222027 18 146 3.2 9.7 0.00 0.38 0.38 62 1011.7
20260509221541 18 238 1.6 6.4 0.00 0.38 0.38 63 1011.7
20260509221026 18 0 1.6 6.4 0.00 0.38 0.38 65 1011.7
20260509220523 18 291 1.6 6.4 0.00 0.38 0.38 68 1011.7
20260509220057 18 356 0.0 6.4 0.00 0.38 0.38 66 1011.7
20260509215524 18 218 1.6 4.8 0.00 0.38 0.38 63 1011.8
20260509215026 18 0 0.0 4.8 0.00 0.38 0.38 64 1011.7
20260509214546 18 115 1.6 6.4 0.00 0.38 0.38 66 1011.7
20260509214024 18 338 3.2 8.0 0.00 0.38 0.38 63 1011.7
20260509213527 18 301 3.2 8.0 0.00 0.38 0.38 63 1011.7
20260509213041 18 17 4.8 8.0 0.00 0.38 0.38 62 1011.8
20260509212524 18 259 1.6 8.0 0.00 0.38 0.38 65 1011.8
20260509212023 18 15 1.6 8.0 0.00 0.38 0.38 63 1011.7
20260509211545 18 241 1.6 6.4 0.00 0.38 0.38 64 1011.7
20260509211024 18 47 1.6 6.4 0.00 0.38 0.38 65 1011.7
20260509210524 18 312 3.2 6.4 0.00 0.38 0.38 62 1011.7
20260509210042 18 323 1.6 6.4 0.00 0.38 0.38 62 1011.7
20260509205522 18 248 1.6 8.0 0.00 0.38 0.38 62 1011.7
20260509205023 19 303 3.2 8.0 0.00 0.38 0.38 62 1011.8
20260509204555 19 34 3.2 8.0 0.00 0.38 0.38 61 1011.6
20260509204026 19 308 1.6 8.0 0.00 0.38 0.38 66 1011.7
20260509203527 19 34 4.8 8.0 0.00 0.38 0.38 62 1011.8
20260509203047 20 214 0.0 6.4 0.00 0.38 0.38 66 1011.8
20260509202524 19 0 1.6 6.4 0.00 0.38 0.38 66 1011.8
20260509202026 18 103 1.6 6.4 0.00 0.38 0.38 69 1011.9
20260509201541 18 58 0.0 3.2 0.00 0.38 0.38 68 1012.0
20260509201023 17 0 1.6 4.8 0.00 0.38 0.38 68 1012.0
20260509200523 18 0 1.6 4.8 0.00 0.38 0.38 68 1012.0
20260509200045 18 80 1.6 6.4 0.00 0.38 0.38 67 1012.1
20260509195524 18 34 3.2 6.4 0.00 0.38 0.38 69 1012.2
20260509195026 18 44 1.6 4.8 0.00 0.38 0.38 69 1012.2
20260509194545 17 333 1.6 4.8 0.00 0.38 0.38 72 1012.4
20260509194023 17 307 0.0 6.4 0.00 0.38 0.38 71 1012.4
20260509193524 17 25 3.2 8.0 0.00 0.38 0.38 70 1012.4
20260509193046 17 330 1.6 8.0 0.00 0.38 0.38 71 1012.3
20260509192527 17 13 3.2 8.0 0.00 0.38 0.38 73 1012.3
20260509192027 17 17 3.2 6.4 0.00 0.38 0.38 73 1012.4
20260509191551 17 356 1.6 3.2 0.00 0.38 0.38 76 1012.4
20260509191026 16 312 1.6 3.2 0.00 0.38 0.38 79 1012.4
20260509190527 16 0 0.0 3.2 0.00 0.38 0.38 80 1012.5
20260509190047 16 311 0.0 3.2 0.00 0.38 0.38 81 1012.4
20260509185529 16 40 0.0 3.2 0.00 0.38 0.38 81 1012.5
20260509185030 15 15 0.0 1.6 0.00 0.38 0.38 82 1012.5
20260509184542 15 0 0.0 1.6 0.00 0.38 0.38 84 1012.4
20260509184027 15 0 0.0 3.2 0.00 0.38 0.38 84 1012.4
20260509183526 15 21 0.0 3.2 0.00 0.38 0.38 85 1012.4
20260509183042 15 349 0.0 3.2 0.00 0.38 0.38 88 1012.5
20260509182523 15 0 0.0 3.2 0.00 0.38 0.38 87 1012.4
20260509182024 14 0 0.0 0.0 0.00 0.38 0.38 89 1012.4
20260509181543 14 0 0.0 0.0 0.00 0.38 0.38 90 1012.5
20260509181027 14 0 0.0 0.0 0.00 0.38 0.38 89 1012.4
20260509180529 14 0 0.0 0.0 0.00 0.38 0.38 93 1012.5
20260509180042 14 0 0.0 0.0 0.00 0.38 0.38 93 1012.5
20260509175525 13 0 0.0 0.0 0.00 0.38 0.38 93 1012.5
20260509175028 13 0 0.0 0.0 0.00 0.38 0.38 94 1012.5
20260509174551 13 0 0.0 0.0 0.00 0.38 0.38 94 1012.5
20260509174022 13 0 0.0 0.0 0.00 0.38 0.38 95 1012.6
20260509173523 13 0 0.0 0.0 0.00 0.38 0.38 94 1012.6
20260509173049 12 0 0.0 0.0 0.00 0.38 0.38 94 1012.7
20260509172526 12 0 0.0 0.0 0.00 0.38 0.38 94 1012.7
20260509172024 12 0 0.0 0.0 0.00 0.38 0.38 93 1012.6
20260509171550 12 0 0.0 0.0 0.00 0.38 0.38 93 1012.7
20260509171023 12 0 0.0 0.0 0.00 0.38 0.38 93 1012.8
20260509170526 13 0 0.0 0.0 0.00 0.38 0.38 93 1012.8
20260509170046 13 0 0.0 0.0 0.00 0.38 0.38 93 1012.8
20260509165524 13 0 0.0 0.0 0.00 0.38 0.38 94 1012.8
20260509165027 13 0 0.0 0.0 0.00 0.38 0.38 95 1012.9
20260509164546 13 0 0.0 0.0 0.00 0.38 0.38 95 1012.8
20260509164024 13 0 0.0 0.0 0.00 0.38 0.38 95 1012.7
20260509163523 13 0 0.0 0.0 0.00 0.38 0.38 95 1012.7
20260509163047 13 0 0.0 0.0 0.00 0.38 0.38 96 1012.7
20260509162524 12 0 0.0 0.0 0.00 0.38 0.38 96 1012.8
20260509162033 12 0 0.0 0.0 0.00 0.38 0.38 95 1012.6
20260509161543 12 0 0.0 0.0 0.00 0.38 0.38 95 1012.7
20260509161026 12 0 0.0 0.0 0.00 0.38 0.38 95 1012.8
20260509160524 12 0 0.0 0.0 0.00 0.38 0.38 95 1012.8
20260509160046 12 0 0.0 0.0 0.00 0.38 0.38 94 1012.8
20260509155523 12 0 0.0 0.0 0.03 0.38 0.38 95 1012.9
20260509155023 12 0 0.0 0.0 0.03 0.38 0.38 95 1013.1
20260509154557 12 0 0.0 0.0 0.03 0.38 0.38 95 1013.0
20260509154024 12 0 0.0 0.0 0.03 0.38 0.38 95 1013.2
20260509153523 12 0 0.0 0.0 0.03 0.38 0.38 95 1013.2
20260509153039 12 0 0.0 0.0 0.03 0.38 0.38 96 1013.1
20260509152524 12 0 0.0 0.0 0.03 0.38 0.38 96 1013.2
20260509152023 12 0 0.0 0.0 0.03 0.38 0.38 95 1013.1
20260509151543 12 0 0.0 0.0 0.03 0.38 0.38 95 1013.3
20260509151023 12 0 0.0 0.0 0.03 0.38 0.38 96 1013.3
20260509150523 12 0 0.0 0.0 0.03 0.38 0.38 96 1013.4
20260509150039 12 0 0.0 0.0 0.03 0.38 0.38 96 1013.3
20260509145523 12 0 0.0 0.0 0.00 0.36 0.36 96 1013.5
20260509145025 11 0 0.0 0.0 0.00 0.36 0.36 96 1013.4
20260509144600 11 0 0.0 0.0 0.00 0.36 0.36 96 1013.3
20260509144024 11 0 0.0 0.0 0.00 0.36 0.36 96 1013.4
20260509143527 11 0 0.0 0.0 0.03 0.36 0.36 96 1013.3
20260509143045 11 0 0.0 0.0 0.03 0.36 0.36 96 1013.4
20260509142523 11 0 0.0 0.0 0.03 0.36 0.36 96 1013.3
20260509142023 11 0 0.0 0.0 0.03 0.36 0.36 96 1013.3
20260509141544 11 0 0.0 0.0 0.03 0.36 0.36 96 1013.2
20260509141023 11 0 0.0 0.0 0.03 0.36 0.36 96 1013.2
20260509140523 11 0 0.0 0.0 0.03 0.36 0.36 96 1013.3
20260509140100 11 0 0.0 0.0 0.05 0.36 0.36 96 1013.4
20260509135526 11 0 0.0 0.0 0.05 0.36 0.36 96 1013.4
20260509135026 11 0 0.0 0.0 0.05 0.36 0.36 96 1013.4
20260509134549 11 0 0.0 0.0 0.05 0.36 0.36 96 1013.5
20260509134022 11 0 0.0 0.0 0.05 0.36 0.36 96 1013.5
20260509133525 11 0 0.0 0.0 0.05 0.33 0.33 96 1013.5
20260509133042 11 0 0.0 0.0 0.05 0.33 0.33 96 1013.3
20260509132525 10 0 0.0 0.0 0.08 0.33 0.33 96 1013.4
20260509132026 10 0 0.0 0.0 0.08 0.33 0.33 96 1013.5
20260509131554 10 0 0.0 0.0 0.10 0.33 0.33 96 1013.4
20260509131023 10 0 0.0 0.0 0.10 0.33 0.33 96 1013.5
20260509130523 10 0 0.0 0.0 0.10 0.33 0.33 96 1013.6
20260509130044 10 0 0.0 0.0 0.08 0.30 0.30 96 1013.5
20260509125527 10 0 0.0 1.6 0.10 0.30 0.30 96 1013.5
20260509125025 10 0 0.0 1.6 0.10 0.30 0.30 96 1013.6
20260509124543 10 98 0.0 1.6 0.10 0.30 0.30 96 1013.6
20260509124023 10 98 0.0 1.6 0.10 0.30 0.30 96 1013.8
20260509123523 10 0 0.0 1.6 0.10 0.28 0.28 95 1013.8
20260509123041 10 97 0.0 1.6 0.10 0.28 0.28 95 1013.9
20260509122522 10 0 0.0 1.6 0.08 0.25 0.25 95 1013.9
20260509122023 10 0 0.0 1.6 0.08 0.25 0.25 95 1013.8
20260509121549 10 108 0.0 1.6 0.05 0.23 0.23 95 1013.8
20260509121026 10 0 0.0 1.6 0.05 0.23 0.23 95 1013.8
20260509120523 10 0 0.0 1.6 0.05 0.23 0.23 95 1013.9
20260509120044 10 0 0.0 1.6 0.05 0.23 0.23 95 1014.1
20260509115526 10 0 0.0 1.6 0.03 0.20 0.20 95 1014.0
20260509115023 10 0 0.0 1.6 0.03 0.20 0.20 95 1014.0
20260509114546 10 0 0.0 1.6 0.03 0.20 0.20 95 1014.0
20260509114023 10 0 0.0 0.0 0.05 0.20 0.20 95 1013.9
20260509113523 10 0 0.0 1.6 0.03 0.18 0.18 95 1013.8
20260509113042 10 0 0.0 4.8 0.03 0.18 0.18 95 1013.7
20260509112524 10 107 0.0 4.8 0.03 0.18 0.18 95 1013.6
20260509112024 10 107 1.6 4.8 0.03 0.18 0.18 95 1013.6
20260509111539 10 0 0.0 3.2 0.05 0.18 0.18 95 1013.5
20260509111023 10 0 0.0 3.2 0.05 0.18 0.18 95 1013.5
20260509110523 10 0 0.0 1.6 0.05 0.18 0.18 95 1013.5
20260509110040 10 115 0.0 1.6 0.05 0.18 0.18 94 1013.4
20260509105522 10 115 0.0 1.6 0.05 0.18 0.18 94 1013.4
20260509105023 10 115 0.0 1.6 0.05 0.18 0.18 94 1013.4
20260509104545 10 113 0.0 1.6 0.03 0.15 0.15 94 1013.3
20260509104024 10 0 0.0 1.6 0.05 0.15 0.15 94 1013.4
20260509103523 10 0 0.0 3.2 0.05 0.15 0.15 94 1013.4
20260509103045 10 0 0.0 3.2 0.05 0.15 0.15 94 1013.4
20260509102523 10 123 0.0 3.2 0.05 0.15 0.15 94 1013.4
20260509102024 10 122 0.0 1.6 0.08 0.15 0.15 94 1013.4
20260509101544 10 127 0.0 3.2 0.05 0.13 0.13 93 1013.6
20260509101025 10 127 0.0 3.2 0.05 0.13 0.13 93 1013.5
20260509100525 10 117 0.0 1.6 0.05 0.13 0.13 93 1013.7
20260509100043 10 0 0.0 3.2 0.05 0.13 0.13 93 1013.5
20260509095528 10 115 0.0 3.2 0.08 0.13 0.13 93 1013.5
20260509095025 10 123 0.0 1.6 0.08 0.13 0.13 92 1013.6
20260509094539 10 125 1.6 3.2 0.08 0.13 0.13 92 1013.9
20260509094023 10 0 0.0 3.2 0.05 0.10 0.10 92 1013.8
20260509093525 10 120 0.0 1.6 0.08 0.10 0.10 91 1013.9
20260509093039 10 120 0.0 1.6 0.10 0.10 0.10 90 1013.8
20260509092522 10 123 0.0 1.6 0.08 0.08 0.08 90 1013.9
20260509092022 10 0 0.0 3.2 0.08 0.08 0.08 89 1014.1
20260509091543 10 120 0.0 3.2 0.08 0.08 0.08 88 1014.0
20260509091024 11 0 0.0 1.6 0.08 0.08 0.08 87 1014.1
20260509090526 11 0 0.0 1.6 0.08 0.08 0.08 87 1014.0
20260509090054 11 0 0.0 1.6 0.08 0.08 0.08 86 1014.1
20260509085523 11 0 0.0 1.6 0.05 0.05 0.05 84 1014.2
20260509085023 11 0 0.0 1.6 0.05 0.05 0.05 84 1014.2
20260509084543 11 0 0.0 1.6 0.05 0.05 0.05 82 1014.1
20260509084023 12 0 0.0 1.6 0.05 0.05 0.05 80 1013.9
20260509083524 12 0 0.0 4.8 0.03 0.03 0.03 78 1014.0
20260509083048 12 0 1.6 4.8 0.00 0.00 0.00 76 1014.1
20260509082523 12 344 1.6 6.4 0.00 0.00 0.00 72 1014.1
20260509082023 12 294 1.6 11.3 0.00 0.00 0.00 71 1014.2
20260509081544 13 33 4.8 11.3 0.00 0.00 0.00 69 1014.1
20260509081024 13 9 4.8 11.3 0.00 0.00 0.00 68 1014.1
20260509080522 13 300 1.6 4.8 0.00 0.00 0.00 67 1013.8
20260509080047 13 328 0.0 3.2 0.00 0.00 0.00 68 1013.7
20260509075530 13 252 0.0 3.2 0.00 0.00 0.00 67 1013.4
20260509075025 13 270 0.0 3.2 0.00 0.00 0.00 66 1013.2
20260509074540 13 39 0.0 4.8 0.00 0.00 0.00 65 1013.0
20260509074025 13 45 1.6 4.8 0.00 0.00 0.00 66 1012.8
20260509073523 13 0 0.0 4.8 0.00 0.00 0.00 66 1012.8
20260509073045 13 39 0.0 4.8 0.00 0.00 0.00 66 1012.8
20260509072523 13 0 0.0 8.0 0.00 0.00 0.00 66 1012.7
20260509072022 13 0 1.6 8.0 0.00 0.00 0.00 66 1012.6
20260509071549 13 14 0.0 3.2 0.00 0.00 0.00 67 1012.6
20260509071025 13 0 0.0 0.0 0.00 0.00 0.00 66 1012.5
20260509070525 13 0 0.0 0.0 0.00 0.00 0.00 66 1012.6
20260509070046 13 0 0.0 0.0 0.00 0.00 0.00 64 1012.4
20260509065526 13 0 0.0 0.0 0.00 0.00 0.00 64 1012.4
20260509065026 13 0 0.0 0.0 0.00 0.00 0.00 63 1012.5
20260509064547 13 0 0.0 1.6 0.00 0.00 0.00 63 1012.4
20260509064029 13 0 0.0 3.2 0.00 0.00 0.00 62 1012.4
20260509063529 13 0 0.0 3.2 0.00 0.00 0.00 63 1012.4
20260509063041 13 0 0.0 3.2 0.00 0.00 0.00 63 1012.4
20260509062528 13 0 0.0 0.0 0.00 0.00 0.00 65 1012.5
20260509062031 13 0 0.0 0.0 0.00 0.00 0.00 63 1012.7
20260509061542 13 0 0.0 0.0 0.00 0.00 0.00 63 1012.6
20260509061026 13 0 0.0 0.0 0.00 0.00 0.00 65 1012.7
20260509060527 13 0 0.0 0.0 0.00 0.00 0.00 64 1012.8
20260509060043 12 0 0.0 0.0 0.00 0.00 0.00 65 1012.7
20260509055524 13 0 0.0 0.0 0.00 0.00 0.00 68 1012.8
20260509055026 13 0 0.0 0.0 0.00 0.00 0.00 65 1012.8
20260509054541 12 0 0.0 0.0 0.00 0.00 0.00 67 1012.8
20260509054028 13 0 0.0 0.0 0.00 0.00 0.00 70 1013.1
20260509053527 13 0 0.0 0.0 0.00 0.00 0.00 67 1013.0
20260509053107 13 0 0.0 0.0 0.00 0.00 0.00 68 1013.0
20260509052527 13 0 0.0 0.0 0.00 0.00 0.00 68 1013.2
20260509052024 14 0 0.0 0.0 0.00 0.00 0.00 60 1013.0
20260509051541 14 0 0.0 0.0 0.00 0.00 0.00 58 1013.0
20260509051024 13 0 0.0 0.0 0.00 0.00 0.00 59 1013.2
20260509050524 13 0 0.0 0.0 0.00 0.00 0.00 61 1013.5
20260509050044 13 0 0.0 0.0 0.00 0.00 0.00 61 1013.5
20260509045525 13 0 0.0 0.0 0.00 0.00 0.00 62 1013.5
20260509045025 13 0 0.0 0.0 0.00 0.00 0.00 62 1013.4
20260509044539 13 0 0.0 0.0 0.00 0.00 0.00 60 1013.4
20260509044027 13 0 0.0 0.0 0.00 0.00 0.00 59 1013.4
20260509043525 13 0 0.0 0.0 0.00 0.00 0.00 59 1013.6
20260509043101 13 0 0.0 0.0 0.00 0.00 0.00 62 1013.6
20260509042527 13 0 0.0 0.0 0.00 0.00 0.00 63 1013.7
20260509042025 13 0 0.0 0.0 0.00 0.00 0.00 64 1013.8
20260509041556 13 0 0.0 0.0 0.00 0.00 0.00 66 1013.8
20260509041024 13 0 0.0 0.0 0.00 0.00 0.00 64 1013.9
20260509040524 13 0 0.0 0.0 0.00 0.00 0.00 61 1013.9
20260509040055 14 0 0.0 0.0 0.00 0.00 0.00 61 1014.0
20260509035541 14 0 0.0 0.0 0.00 0.00 0.00 59 1013.8
20260509035024 13 0 0.0 0.0 0.00 0.00 0.00 60 1013.8
20260509034558 14 0 0.0 0.0 0.00 0.00 0.00 61 1013.9
20260509034025 14 0 0.0 0.0 0.00 0.00 0.00 61 1014.0
20260509033524 14 0 0.0 0.0 0.00 0.00 0.00 58 1013.8
20260509033039 14 0 0.0 0.0 0.00 0.00 0.00 59 1013.9
20260509032524 14 0 0.0 0.0 0.00 0.00 0.00 59 1013.9
20260509032024 14 0 0.0 0.0 0.00 0.00 0.00 58 1014.1
20260509031541 14 0 0.0 0.0 0.00 0.00 0.00 59 1014.0
20260509031024 14 0 0.0 0.0 0.00 0.00 0.00 58 1014.0
20260509030525 14 0 0.0 0.0 0.00 0.00 0.00 58 1014.1
20260509030046 14 0 0.0 0.0 0.00 0.00 0.00 57 1014.2
20260509025524 14 0 0.0 0.0 0.00 0.00 0.00 58 1014.2
20260509025024 14 0 0.0 0.0 0.00 0.00 0.00 58 1014.3
20260509024543 14 0 0.0 0.0 0.00 0.00 0.00 58 1014.3
20260509024028 14 0 0.0 0.0 0.00 0.00 0.00 60 1014.4
20260509023524 15 0 0.0 0.0 0.00 0.00 0.00 59 1014.3
20260509023041 15 0 0.0 0.0 0.00 0.00 0.00 56 1014.2